Weather in Aksarino

Russia / Chuvash Republic     55°54′47″N   47°55′18″E
temp.,
°C
wind,
m/s
gust,
m/s
humid.,
%
clouds,
%
prec.,
mm/h
press.,
hPa
HPBL,
m
9 may, sun
sun900:00+9se4148990 0.0 1012305
03:00+10se4117994 0.0 1011230
06:00+11sse4107698 0.0 1011270
09:00+17sse6116179 0.0 1011747
12:00+19sse71157100 0.0 1011906
15:00+17sse3771100 0.0 1011352
18:00+18sse6127075 0.1 1011551
21:00+14sse51578100 0.2 1012389
10 may, mon
mon1000:00+12sse238881 0.2 101343
03:00+12w2289100 0.2 101625
06:00+13ne2384100 0.0 1017115
09:00+16nne2369100 0.0 1019526
12:00+19nne3362100 0.0 1020826
15:00+20n4460100 0.0 10211140
18:00+15n5987100 1.3 1023418
21:00+12n51092100 1.8 1025306
11 may, tue
tue1100:00+9n4996100 0.1 1025231
03:00+9nne3896100 0.1 1026197
06:00+11nne479399 0.0 1027230
09:00+17ne457685 0.0 1027493
12:00+22ene345625 0.0 10271045
15:00+23ene334683 0.0 10272103
18:00+21ene2363100 0.0 102749
21:00+17ne3676100 0.0 1028119
12 may, wed
wed1200:00+14ene2489100 0.0 102858
03:00+13ene2292100 0.0 102932
06:00+15e2484100 0.0 1029144
09:00+20ese455890 0.0 1029561
12:00+23ese4544100 0.0 10291462
15:00+23se444290 0.0 10281675
18:00+21se346423 0.0 102889
21:00+16ese226983 0.0 102814
13 may, thu
thu1300:00+15ese2272100 0.0 102813
03:00+14ese2273100 0.0 102813
06:00+16ese247114 0.0 1028130
09:00+21se575262 0.0 1028708
12:00+23se564045 0.0 10281433
15:00+23se564133 0.0 10271419
18:00+20ese3662100 0.0 1026120
21:00+16se336465 0.0 102735